This is the latest recevied weather packets stored in our database for station/object S50APT-10. If no packets are shown the sender has not sent any weather packets the latest 10 day(s).
| Time | Temp. | Humidity | Pressure | Rain* | Wind** | Luminosity | Snow |
|---|---|---|---|---|---|---|---|
| 1777523443 | 3.33° C | 45% | 1030 hPa | - | - | - | - |
| 1777522519 | 2.78° C | 45% | 1029.7 hPa | - | - | - | - |
| 1777521608 | 2.22° C | 46% | 1029.6 hPa | - | - | - | - |
| 1777520692 | 2.22° C | 46% | 1029.6 hPa | - | - | - | - |
| 1777519778 | 2.78° C | 45% | 1029.7 hPa | - | - | - | - |
| 1777518890 | 2.78° C | 45% | 1029.7 hPa | - | - | - | - |
| 1777517959 | 2.78° C | 45% | 1029.6 hPa | - | - | - | - |
| 1777517027 | 3.33° C | 44% | 1029.6 hPa | - | - | - | - |
| 1777516092 | 3.33° C | 43% | 1029.5 hPa | - | - | - | - |
| 1777515192 | 3.33° C | 43% | 1029.5 hPa | - | - | - | - |
| 1777514278 | 3.89° C | 41% | 1029.5 hPa | - | - | - | - |
| 1777513357 | 3.89° C | 40% | 1029.5 hPa | - | - | - | - |
| 1777512448 | 4.44° C | 39% | 1029.4 hPa | - | - | - | - |
| 1777511527 | 4.44° C | 39% | 1029.4 hPa | - | - | - | - |
| 1777510616 | 4.44° C | 38% | 1029.2 hPa | - | - | - | - |
| 1777509711 | 4.44° C | 37% | 1029.1 hPa | - | - | - | - |
| 1777508810 | 5° C | 37% | 1028.9 hPa | - | - | - | - |
| 1777507910 | 5° C | 37% | 1028.8 hPa | - | - | - | - |
| 1777507013 | 5° C | 38% | 1028.6 hPa | - | - | - | - |
| 1777506112 | 5.56° C | 38% | 1028.5 hPa | - | - | - | - |
| 1777505208 | 5.56° C | 38% | 1028.4 hPa | - | - | - | - |
| 1777504307 | 5.56° C | 39% | 1028.4 hPa | - | - | - | - |
| 1777503405 | 5.56° C | 41% | 1028.1 hPa | - | - | - | - |
| 1777502505 | 6.11° C | 43% | 1028.1 hPa | - | - | - | - |
| 1777501605 | 6.11° C | 43% | 1028 hPa | - | - | - | - |
* Rain since midnight (hover to see other rain measurements)
** Current wind speed in m/s (hover to see current wind gust speed)